{"data":{"norad_id":48096,"epoch":"2026-05-25T01:04:21.202176Z","epoch_age_seconds":85385,"freshness":"FRESH","line1":"1 48096U 21027E   26145.04468984  .00000947  00000+0  42292-4 0  9992","line2":"2 48096  53.1588 170.4799 0001263  88.2568 271.8578 15.31697629284208","mean_motion":15.31697629,"eccentricity":0.0001263,"inclination_deg":53.1588,"raan_deg":170.4799,"arg_perigee_deg":88.2568,"mean_anomaly_deg":271.8578,"bstar":4.2292e-5,"rev_number":28420,"period_min":94.013333489335,"perigee_km":469.88204900522,"apogee_km":471.61207711955,"semimajor_km":6848.8840630624,"source":"CELESTRAK","updated_at":"2026-05-25T13:38:16.641729Z"}}